{"data":{"norad_id":67167,"intl_designator":"2025-303E","name":"STARLINK-36198","alt_names":[],"object_type":"PAYLOAD","status":"ACTIVE","operator":null,"country":"US","launch_date":"2025-12-17","launch_site_code":"AFETR","launch_vehicle":null,"mission":null,"orbit_class":"UNKNOWN","rcs_meters":null,"size_class":null,"mass_kg":null,"dimensions":null,"purposes":["comms"],"wikipedia_slug":null,"has_3d_model":false,"image_url":null,"decayed_at":null,"tle_current":{"epoch":"2026-05-24T22:46:08.817024Z","epoch_age_seconds":82519,"freshness":"FRESH","line1":"1 67167U 25303E   26144.94871316  .00021383  00000+0  78367-3 0  9996","line2":"2 67167  42.9991 240.4227 0001527 272.9225  87.1451 15.27606341 24397","mean_motion":15.27606341,"eccentricity":0.0001527,"inclination_deg":42.9991,"raan_deg":240.4227,"arg_perigee_deg":272.9225,"mean_anomaly_deg":87.1451,"bstar":0.00078367,"rev_number":2439,"period_min":94.265123242245,"perigee_km":481.92253167,"apogee_km":484.01791381582,"semimajor_km":6861.1072227429,"source":"CELESTRAK","updated_at":"2026-05-25T13:38:21.480202Z"}}}